[[{"header":{"parameterUnit":"m.s-1","parameterCategory":1,"la1":30.2991,"la2":30.254,"lo1":-89.0895,"lo2":-89.0444,"dy":0.0017,"dx":0.0017,"nx":28,"ny":28,"refTime":"2024-07-20T21:00:00:Z","depth":0,"parameterNumber":2,"parameterNumberName":"U-component_of_WINDS"},"data":[0,0,0,0,0,0,0,0,0,0,0,0,0,0,0,0,0,0,0,0,0,0,0,0,0,0,0,0,0,0,0,0,0,0,0,0,0,0,0,0,0,0,0,0,0,0,0,0,0,0,0,0,0,0,0,0,0,0,2.9573,2.9574,0,2.9624,2.9624,2.9625,2.9601,2.96,2.9598,2.9597,2.9648,2.9651,2.9653,0,0,0,0,0,0,0,0,0,0,0,0,0,2.9454,2.9456,2.9573,2.9574,2.9574,2.9624,2.9624,2.9625,2.9601,2.96,2.9598,2.9597,2.9647,2.965,2.9654,0,0,0,0,0,0,0,0,0,0,0,0,0,2.9505,2.9457,2.9573,2.9568,2.9568,2.9624,2.9624,2.9625,2.9602,2.96,2.9598,2.9596,2.9646,2.965,2.9654,2.9716,0,0,2.9666,2.9667,0,0,0,0,0,0,0,0,2.9502,2.9509,2.9568,2.9569,2.9569,2.9604,2.9601,2.9656,2.9602,2.9589,2.9597,2.9595,2.9635,2.964,2.9653,2.9719,2.9721,2.9666,2.9668,2.967,2.9671,0,0,0,0,0,0,0,2.9499,2.9507,2.9593,2.9569,2.957,2.9563,2.9568,2.9611,2.9622,2.959,2.9588,2.9595,2.9635,2.965,2.9654,2.9721,2.9666,2.9669,2.9672,2.9673,2.9839,2.9841,0,0,0,0,0,0,2.9495,2.9504,2.9591,2.9595,2.953,2.9567,2.9573,2.9595,2.9622,2.9624,2.9596,2.9593,2.9644,2.965,2.9656,2.9729,2.967,2.9674,2.9676,2.9837,2.9839,2.9841,0,0,0,0,0,0,2.9493,2.9503,2.9589,2.9549,2.956,2.9571,2.9596,2.9597,2.9612,2.9626,2.9628,2.961,2.9643,2.9651,2.9701,2.9731,2.9675,2.9679,2.9834,2.9837,2.984,2.9877,0,0,0,0,0,0,2.949,2.9503,2.9527,2.955,2.9562,2.9634,2.9598,2.9599,2.9618,2.9615,2.9639,2.9642,2.9642,2.9696,2.9705,2.9735,2.9682,2.9831,2.9835,2.9839,2.9873,2.9881,2.9888,0,0,0,0,0,2.9485,2.9535,2.9528,2.9539,2.9592,2.9636,2.9642,2.9642,2.9621,2.9645,2.9654,2.9641,2.9726,2.9701,2.9711,2.9743,2.9829,2.9834,2.9839,2.987,2.9879,2.9887,0,0,0,0,0,0,2.9515,2.9538,2.9531,2.9589,2.9611,2.9632,2.9662,2.9653,2.968,2.9676,2.9674,2.968,2.9732,2.9743,2.9714,2.9804,2.9775,2.9782,2.9794,2.9804,2.9811,2.9806,2.9685,0,0,0,0,0,2.9529,2.9563,2.9581,2.9631,2.9642,2.965,2.9669,2.9667,2.9689,2.9698,2.9711,2.9732,2.9764,2.9785,2.9815,2.9875,2.9879,2.9902,2.9909,2.9915,2.9921,2.9952,2.9962,2.9857,2.9857,2.9857,0,0,2.9556,2.9573,2.9595,2.9637,2.9653,2.9688,2.9658,2.9696,2.9721,2.9703,2.9751,2.9762,2.9786,2.9841,2.9866,2.9852,2.9951,2.9921,2.9926,2.9928,2.9958,2.9968,2.9976,2.986,2.9859,2.9859,0,0,2.9624,2.9641,2.9684,2.9701,2.9726,2.9731,2.9742,2.9764,2.977,2.9819,2.9806,2.9836,2.9891,2.9908,2.9924,2.9998,2.9986,3.0008,3.0045,3.0076,3.0084,3.0091,3.0116,3.0125,3.0014,3.0014,3.0014,0,2.9656,2.9707,2.9707,2.9746,2.9764,2.9751,2.9793,2.981,2.9843,2.9856,2.984,2.9908,2.9923,2.9981,2.9999,3.0013,3.0024,3.0004,3.0083,3.009,3.0097,3.012,3.013,3.0016,3.0016,3.0016,3.0015,0,2.9743,2.9779,2.9811,2.9844,2.9866,2.9906,2.9912,2.9934,2.993,2.9937,2.9986,3.0004,3.0036,3.005,3.0047,3.0108,3.0098,3.0083,3.0053,3.0109,3.0131,3.014,3.002,3.0019,3.0018,3.0017,0,0,2.983,2.9862,2.9874,2.9888,2.9915,2.9942,2.9982,3.0014,3.0032,3.0057,3.0089,3.0135,3.0121,3.0139,3.0138,3.0165,3.022,3.0146,3.0146,3.0157,3.0286,3.0296,3.0307,3.0213,3.0215,3.0217,3.0284,0,2.9898,2.9968,2.9969,3.0032,3.0064,3.0052,3.0087,3.0106,3.0114,3.0142,3.015,3.0182,3.0162,3.0172,3.0199,3.0208,3.0246,3.0203,3.0242,3.0243,3.0234,3.0319,3.033,3.0392,3.0293,3.0294,3.0295,0,2.9987,3.0013,3.008,3.0101,3.0115,3.0146,3.0175,3.0202,3.0224,3.0228,3.0248,3.0243,3.0282,3.0253,3.0306,3.0277,3.0294,3.0301,3.0303,3.0305,3.0271,3.0321,3.0412,3.0421,3.0309,3.0308,3.0307,0,3.0041,3.0094,3.014,3.0153,3.0179,3.0201,3.0213,3.0233,3.0252,3.0278,3.0289,3.032,3.0335,3.0359,3.0361,3.034,3.0415,3.0386,3.0417,3.0417,3.0432,3.0431,3.0525,3.0446,3.0446,3.0446,3.0446,0,3.0116,3.0157,3.0164,3.0192,3.0237,3.0238,3.0283,3.0293,3.0311,3.034,3.0332,3.036,3.0363,3.0391,3.0394,3.0437,3.0445,3.0447,3.0447,3.0447,3.0446,3.0456,3.0451,3.0448,3.0448,3.0447,3.0447,0,3.0183,3.019,3.0239,3.026,3.0267,3.0299,3.0316,3.0343,3.035,3.0387,3.0396,3.0406,3.0439,3.0445,3.0484,3.0485,3.0536,3.0533,3.0529,3.0527,3.0558,3.0554,3.066,3.0673,3.0588,3.0588,3.0589,0,3.0229,3.026,3.0285,3.0304,3.0317,3.0348,3.0367,3.0369,3.039,3.0417,3.044,3.0472,3.0498,3.0551,3.0562,3.0591,3.0587,3.0622,3.0591,3.059,3.0585,3.0582,3.0584,3.0627,3.0628,3.0629,3.063,0,3.031,3.0312,3.034,3.0369,3.0392,3.0416,3.0438,3.0454,3.0459,3.0482,3.0515,3.0535,3.0575,3.0606,3.0636,3.0647,3.0639,3.064,3.0648,3.0647,3.0642,3.0643,3.0542,3.0636,3.0636,3.0635,3.0635,3.0635,3.0366,3.0393,3.0414,3.0445,3.0462,3.0482,3.0508,3.0518,3.0546,3.0578,3.0578,3.0615,3.0635,3.0674,3.0688,3.0716,3.0704,3.0717,3.072,3.0723,3.0724,3.064,3.0721,3.0721,3.0721,3.0721,3.0721,0,3.0444,3.0457,3.0487,3.0517,3.0542,3.0533,3.0556,3.0577,3.0609,3.063,3.0655,3.0693,3.0724,3.0737,3.0767,3.0787,3.0784,3.0794,3.0792,3.0794,3.0734,3.0723,3.0796,3.0796,3.0796,3.0796,3.0796,3.0796,3.0488,3.0531,3.0536,3.0587,3.06,3.0635,3.065,3.0668,3.0684,3.0727,3.0752,3.0761,3.0778,3.0809,3.0837,3.084,3.085,3.0863,3.0864,3.0807,3.0799,3.0791,3.0781,3.0865,3.0865,3.0921,3.0922,3.0922]},{"header":{"parameterUnit":"m.s-1","parameterCategory":1,"la1":30.2991,"la2":30.254,"lo1":-89.0895,"lo2":-89.0444,"dy":0.0017,"dx":0.0017,"nx":28,"ny":28,"refTime":"2024-07-20T21:00:00:Z","depth":0,"parameterNumber":3,"parameterNumberName":"V-component_of_WINDS"},"data":[0,0,0,0,0,0,0,0,0,0,0,0,0,0,0,0,0,0,0,0,0,0,0,0,0,0,0,0,0,0,0,0,0,0,0,0,0,0,0,0,0,0,0,0,0,0,0,0,0,0,0,0,0,0,0,0,0,0,2.332,2.332,0,2.3347,2.3347,2.3347,2.3336,2.3335,2.3334,2.3334,2.3359,2.336,2.3361,0,0,0,0,0,0,0,0,0,0,0,0,0,2.3255,2.3257,2.332,2.332,2.332,2.3346,2.3347,2.3347,2.3336,2.3335,2.3334,2.3334,2.3359,2.336,2.3362,0,0,0,0,0,0,0,0,0,0,0,0,0,2.3283,2.3257,2.332,2.3318,2.3318,2.3346,2.3347,2.3347,2.3336,2.3335,2.3334,2.3333,2.3358,2.336,2.3362,2.3393,0,0,2.3368,2.3368,0,0,0,0,0,0,0,0,2.3281,2.3285,2.3318,2.3318,2.3318,2.3337,2.3333,2.3362,2.3336,2.3329,2.3334,2.3333,2.3352,2.3355,2.3362,2.3394,2.3395,2.3368,2.3369,2.337,2.337,0,0,0,0,0,0,0,2.3279,2.3284,2.333,2.3318,2.3319,2.3315,2.3318,2.3339,2.3346,2.333,2.3329,2.3332,2.3352,2.336,2.3362,2.3395,2.3368,2.3369,2.3371,2.3371,2.3453,2.3454,0,0,0,0,0,0,2.3278,2.3282,2.3329,2.3331,2.3297,2.3317,2.332,2.3332,2.3345,2.3347,2.3333,2.3332,2.3357,2.336,2.3363,2.3399,2.337,2.3372,2.3373,2.3452,2.3453,2.3454,0,0,0,0,0,0,2.3277,2.3282,2.3328,2.3307,2.3312,2.3319,2.3332,2.3333,2.3341,2.3348,2.3349,2.334,2.3356,2.336,2.3385,2.34,2.3372,2.3374,2.345,2.3452,2.3453,2.3473,0,0,0,0,0,0,2.3275,2.3282,2.3294,2.3307,2.3313,2.3351,2.3333,2.3334,2.3344,2.3343,2.3355,2.3356,2.3356,2.3382,2.3387,2.3402,2.3376,2.3449,2.3451,2.3453,2.3471,2.3475,2.3478,0,0,0,0,0,2.3272,2.3299,2.3295,2.3301,2.333,2.3352,2.3356,2.3356,2.3345,2.3358,2.3362,2.3355,2.3398,2.3385,2.339,2.3406,2.3448,2.3451,2.3453,2.3469,2.3474,2.3478,0,0,0,0,0,0,2.3287,2.33,2.3297,2.3328,2.3339,2.335,2.3366,2.3361,2.3375,2.3373,2.3372,2.3375,2.34,2.3406,2.3392,2.3436,2.3421,2.3425,2.3432,2.3436,2.344,2.3438,2.3377,0,0,0,0,0,2.3294,2.3312,2.3322,2.3349,2.3355,2.3359,2.3369,2.3368,2.3379,2.3384,2.339,2.3401,2.3416,2.3427,2.3441,2.3471,2.3473,2.3484,2.3488,2.3491,2.3494,2.3509,2.3514,2.3462,2.3462,2.3461,0,0,2.3308,2.3318,2.3329,2.3352,2.336,2.3378,2.3363,2.3383,2.3396,2.3387,2.3411,2.3416,2.3427,2.3454,2.3467,2.3459,2.3509,2.3494,2.3496,2.3498,2.3512,2.3517,2.3521,2.3463,2.3463,2.3463,0,0,2.3344,2.3353,2.3376,2.3384,2.3398,2.34,2.3406,2.3417,2.3421,2.3445,2.3438,2.3453,2.348,2.3488,2.3495,2.3532,2.3526,2.3537,2.3556,2.3571,2.3575,2.3578,2.3591,2.3595,2.354,2.354,2.354,0,2.336,2.3387,2.3388,2.3408,2.3417,2.341,2.3432,2.344,2.3457,2.3464,2.3455,2.3489,2.3496,2.3524,2.3533,2.354,2.3545,2.3536,2.3574,2.3578,2.3581,2.3593,2.3598,2.3541,2.3541,2.3541,2.3541,0,2.3406,2.3425,2.3441,2.3458,2.3469,2.349,2.3493,2.3504,2.3502,2.3505,2.3529,2.3537,2.3553,2.3559,2.3558,2.3587,2.3582,2.3574,2.3559,2.3587,2.3598,2.3603,2.3543,2.3542,2.3542,2.3542,0,0,2.3452,2.3468,2.3474,2.3481,2.3495,2.3509,2.3529,2.3545,2.3554,2.3565,2.3581,2.3604,2.3596,2.3605,2.3603,2.3616,2.3644,2.3606,2.3606,2.3612,2.3676,2.3682,2.3687,2.364,2.3641,2.3641,2.3675,0,2.3487,2.3523,2.3523,2.3556,2.3573,2.3566,2.3583,2.3592,2.3595,2.3609,2.3612,2.3628,2.3617,2.3622,2.3634,2.3638,2.3656,2.3635,2.3654,2.3654,2.3651,2.3693,2.37,2.3731,2.3679,2.368,2.3681,0,2.3534,2.3548,2.3582,2.3592,2.3599,2.3615,2.3628,2.3642,2.3652,2.3653,2.3663,2.3659,2.3678,2.3662,2.3688,2.3674,2.3681,2.3684,2.3685,2.3686,2.3669,2.3695,2.3741,2.3746,2.3687,2.3687,2.3686,0,2.3563,2.359,2.3614,2.362,2.3633,2.3643,2.3649,2.3658,2.3667,2.3679,2.3685,2.3699,2.3706,2.3716,2.3716,2.3705,2.3741,2.3726,2.3742,2.3742,2.375,2.3749,2.3797,2.3755,2.3755,2.3755,2.3755,0,2.3603,2.3624,2.3627,2.3641,2.3664,2.3664,2.3686,2.369,2.3698,2.3713,2.3707,2.372,2.372,2.3733,2.3733,2.3753,2.3757,2.3757,2.3757,2.3758,2.3758,2.3762,2.376,2.3756,2.3756,2.3756,2.3756,0,2.364,2.3642,2.3668,2.3677,2.368,2.3696,2.3704,2.3717,2.372,2.3738,2.3742,2.3745,2.376,2.3761,2.3779,2.3778,2.3803,2.3801,2.38,2.3799,2.3815,2.3813,2.3867,2.3874,2.3828,2.3829,2.3829,0,2.3665,2.3681,2.3692,2.3702,2.3708,2.3723,2.3732,2.3732,2.3742,2.3754,2.3765,2.378,2.3792,2.3816,2.3819,2.3832,2.383,2.3848,2.3832,2.3832,2.3829,2.3828,2.3829,2.3851,2.3851,2.3852,2.3852,0,2.3709,2.3709,2.3723,2.3737,2.3749,2.376,2.377,2.3778,2.3778,2.3789,2.3805,2.3814,2.3832,2.3846,2.3858,2.3863,2.3857,2.3857,2.3861,2.3862,2.3861,2.3861,2.3808,2.3856,2.3855,2.3855,2.3855,2.3855,2.374,2.3753,2.3763,2.3779,2.3786,2.3796,2.3808,2.3812,2.3825,2.384,2.3839,2.3856,2.3864,2.388,2.3886,2.3898,2.3892,2.3899,2.39,2.3902,2.3903,2.3859,2.3901,2.3901,2.3901,2.39,2.39,0,2.3783,2.3789,2.3803,2.3817,2.3829,2.3823,2.3834,2.3844,2.3859,2.3868,2.388,2.3897,2.391,2.3915,2.3928,2.3937,2.3935,2.394,2.3939,2.394,2.3908,2.3903,2.3942,2.3942,2.3942,2.3942,2.3942,2.3942,2.3807,2.3829,2.383,2.3856,2.3861,2.3878,2.3885,2.3893,2.39,2.3919,2.3931,2.3934,2.394,2.3953,2.3965,2.3966,2.3971,2.3977,2.3977,2.3947,2.3943,2.3939,2.3934,2.3979,2.3979,2.4008,2.4008,2.4009]}]]